Satellite-Ground Cal/Val Site Overpasses Predictions

Prediction of Satellite NPP Overpassing Cal/Val Site: Antarctic Dome C

Ground Cal/Val Site Location: Latitude: -75.10, Longitude: 123.35; Satellite-Ground Site NADIR distance within 100 km.

Table of predicted overpasses for the next 14.0 days since TLE Epoch: 6/19/2020
Interval Starting Time Ending Time Minimum Distance Time Minimum Distance (km)
1 06/20/2020 14:41:55 06/20/2020 14:42:20 06/20/2020 14:42:07 51.95
2 06/21/2020 07:43:35 06/21/2020 07:43:56 06/21/2020 07:43:45 68.21
3 06/22/2020 07:24:43 06/22/2020 07:25:10 06/22/2020 07:24:56 39.86
4 06/24/2020 15:07:08 06/24/2020 15:07:17 06/24/2020 15:07:12 94.63
5 06/25/2020 14:48:07 06/25/2020 14:48:36 06/25/2020 14:48:21 16.78
6 06/27/2020 07:30:56 06/27/2020 07:31:25 06/27/2020 07:31:10 3.97
7 06/30/2020 14:54:22 06/30/2020 14:54:51 06/30/2020 14:54:37 19.81
8 07/01/2020 14:35:40 07/01/2020 14:35:53 07/01/2020 14:35:47 87.33
9 07/02/2020 07:37:11 07/02/2020 07:37:39 07/02/2020 07:37:25 32.40


NCC Satellite Cal/Val Overpasses Prediction Service
